Find Starlink 35975

NORAD ID: 66525 Int'l Des: 2025-265 Owner: SPXS Country: US Constellation: starlink operational
LEOCIRCULAR

現在のビュー

3D地球を読み込み中...

About Starlink 35975

Starlink 35975 (NORAD 66525) is a starlink constellation satellite (v2 mini) launched Nov 19, 2025 by SPXS of US. It operates in LEO, CIRCULAR orbit with a mass of 575.00 kg.

次回通過

Passes for default location (London). Set your location on the main map for personalized predictions.

高度履歴

Loading altitude history...

軌道要素

1 66525U 25265K 26264.32397869 .00008425 00000-0 31529-3 0 9993
2 66525 42.9978 253.0583 0001470 258.9821 101.0865 15.27585793 47035
Epoch: Sep 21, 2026 • Age: 11 hours

現在のステータス

高度 486.5 km
遠地点 / 近地点 N/A
速度 7.63 km/s
衛星直下点 40.38°N, 28.76°E
打ち上げ日 Nov 19, 2025
運用期間 0.8 years
タイプ internet

技術仕様

分類 Payload
質量 575.00 kg
乾燥質量 530.00 kg
長さ 0.30 m
スパン 29.00 m
形状 ? Box + pan
製造者 SPXS
バスタイプ Starlink V2MO
フェーズステータス In Orbit
所有者/国 SPXS/US

Most Searched